Regional Weather Roundup
Issued by NWS Binghamton, NY

Home | Current Version | Previous Version | Text Only | Print | Product List | Glossary On
Versions: 1 2 3 4 5 6 7 8 9 10 11 12 13 14 15 16 17 18 19 20 21 22 23 24 25 26 27 28 29 30 31 32 33 34 35 36 37 38 39 40 41 42 43 44 45 46 47 48 49 50
000
ASUS41 KBGM 150510
RWRBGM
RWRBGM
BINGHAMTON REGIONAL WEATHER ROUNDUP
NATIONAL WEATHER SERVICE BINGHAMTON NY
100 AM EDT MON SEP 15 2014

Note: "fair" indicates few or no clouds below 12,000 feet with no
significant weather and/or obstructions to visibility.

* = Station(s) that does not report precipitation, such as rain,
snow, etc, also no thunder or fog.

!NYZ009-015>018-022>025-036-037-044>046-055>057-062-150600
...CENTRAL NEW YORK...

CITY           SKY/WX    TMP DP  RH WIND       PRES   REMARKS
BINGHAMTON     CLOUDY    47  44  90 SE3       30.21F
CORTLAND       CLOUDY    48  46  93 CALM      30.25S
DANSVILLE      CLOUDY    51  47  86 SE5       30.25S
ELMIRA         CLOUDY    50  48  93 SW6       30.24S
ITHACA         CLOUDY    49  47  93 CALM      30.25S
HAMILTON       CLOUDY    46  45  93 CALM      30.24S
MONTICELLO     CLEAR     45  43  93 NW5       30.24S
NORWICH        CLOUDY    45  45 100 CALM      30.24S
ONEONTA        MOCLDY    45  43  93 CALM      30.22F
PENN YAN       CLOUDY    50  47  89 CALM      30.24S
ROME           MOCLDY    42  41  96 CALM      30.25F
SIDNEY         CLOUDY    50  50 100 CALM      30.23F
SYRACUSE       MOCLDY    51  46  83 CALM      30.23F
$$

!PAZ038>040-043-044-047-048-072-150600
...NORTHEAST PENNSYLVANIA...

CITY           SKY/WX    TMP DP  RH WIND       PRES   REMARKS
HAZLETON       FOG       41  41 100 CALM      30.25S VSB 1/2
SCRANTON       CLEAR     46  42  86 E7        30.23R
TOWANDA*       CLOUDY    48  48 100 SW3       30.25S
$$
&&
KEY
WCI = WIND CHILL INDEX
VSB = VISIBILITY
HX  = HEAT INDEX
$$


USA.gov is the U.S. government's official web portal to all federal, state and local government web resources and services.